ATLAS AGENA D R/B, 2144

Orbit data source: Space-Track

ATLAS AGENA D R/B, 2144 is space debris in LEO originally from a launch on Fri, 08 Apr 1966 UTC launched from the Air Force Eastern Test Range (AFETR). Debris objects in space refer to the collection of defunct objects orbiting the Earth. Examples of debris include non-operational satellites, rocket bodies, and fragments generated from explosions, collisions, or faulty payload assembly.

Loading next visibility...
Identifier
2144, 1966-031B
Orbit
LEO
Country
Flag of USUS
Related business
Manufacturer
LMSC
Mission
Spacecraft
Bus & Motor
AGENA D, Unknown motor
Mass
769 kg wet, 769 kg dry
Launch date (UTC)
1966-04-08 (60 years ago)
Launch vehicle
Unknown
Launch site
Air Force Eastern Test Range (AFETR)
Object type
Payload
Rocket body
Debris
Shape & HBR
Unknown
Radar Cross Section
Large (>1 m²)

Expand to show TLE details & history
Last TLE update: 12 hours ago

TLE from 12 hours ago
0 ATLAS AGENA D R/B
1 02144U 66031B   25348.90417565  .00000432  00000-0  12811-3 0  9991
2 02144  35.0423 284.0684 0007976 340.8655  19.1736 14.44802316136103
Epoch: 2025-12-14T21:42Z
TLE epoch observation values (Epoch: 2025-12-14T21:42:00.776Z)
Latitude
0.00003°
Longitude
-125.2452°
Altitude
736.262 km
Speed
7.492 km/s
True Right ascension
18h 56m 16s
True Declination
0° 00' 00"
Sunlit
Object was in daylight at epoch
Visualization orbit readout
Latitude
Unknown
Longitude
Unknown
Altitude
Unknown
Speed
Unknown
Apparent Right ascension
Unknown
Apparent Declination
Unknown
Sunlit
N/A
Visualization observer readout
Local Sidereal Time
07:51:00
Azimuth
Unknown
Elevation
Unknown
Doppler factor
Unknown
Orbital elements
Apogee altitude
751.489 km
Perigee altitude
740.125 km
Semi-major axis
7,123.944 km
Eccentricity
0.0008
Inclination
35.0423°
RAAN
284.0684°
Arg. of periapsis
340.8655°
True anomaly
19.20365°
Mean anomaly
19.1736°
Eccentric anomaly
19.18862°
Mean motion
3.60963 °/min
Orbital period
99.73 mins
BSTAR
0.00012811
Loading maneuver chart data...
Computing Atmospheric mass density...
Loading historical data...
Loading historical data...
Loading historical data...
Loading historical data...
Loading historical data...
Loading historical data...
Loading historical data...
Other satellites on launch #31 in the year 1966 (1966-04-08 UTC)

Documentation

Showing up to 5 results
|